Location: Proctor
(47.8934°N, 114.3048°W)
Time: 21:10:02
(UTC+00:00)

AO-92 - Pass Details

Date: 04 July 2022
Orbit: 469 x 481 km, 97.4° (Epoch: 13 August)

Event Time Altitude Azimuth Distance (km) Brightness Sun altitude
Exits shadow 04:16:06 - 108° (ESE) 2,082 ? -5.6°
Reaches altitude 10° 04:17:45 10° 89° (E) 1,660 ? -5.8°
Maximum altitude 04:19:22 13° 62° (ENE) 1,499 ? -6.0°
Drops below altitude 10° 04:21:01 10° 34° (NE) 1,670 ? -6.2°
Sets 04:24:02 0° 6° (N) 2,560 ? -6.5°
